DW7854 Weather Reports


time (UTC)temp
F
wind
direction
speed
knots
gust
knots
rain 1hr
in
rain 24hr
in
rain mn
in
humidity
%
barometer
mb
20260509024503 67 115 0.0 2.6 0.00 0.00 0.00 80 1008.7
20260509024136 68 148 0.9 2.6 0.00 0.00 0.00 80 1008.3
20260509023236 68 166 0.9 3.5 0.00 0.00 0.00 80 1008.6
20260509023117 67 176 0.0 3.5 0.00 0.00 0.00 80 1008.9
20260509022336 68 161 2.6 5.2 0.00 0.00 0.00 80 1008.4
20260509021509 67 150 2.6 5.2 0.00 0.00 0.00 81 1008.2
20260509021436 68 163 2.6 5.2 0.00 0.00 0.00 81 1007.9
20260509015636 69 220 0.0 0.9 0.00 0.00 0.00 78 1008.4
20260509014609 69 219 0.0 0.9 0.00 0.00 0.00 78 1008.7
20260509013836 70 336 0.0 1.7 0.00 0.00 0.00 77 1008.3
20260509013008 70 346 0.0 0.9 0.00 0.00 0.00 76 1008.5
20260509012936 71 346 0.0 0.9 0.00 0.00 0.00 76 1008.2
20260509012036 71 346 0.0 0.9 0.00 0.00 0.00 75 1008.0
20260509011605 71 346 0.0 0.9 0.00 0.00 0.00 75 1008.3
20260509011136 72 346 0.0 0.9 0.00 0.00 0.00 75 1008.0
20260509010236 72 346 0.0 0.9 0.00 0.00 0.00 73 1007.8
20260509010104 72 346 0.0 0.9 0.00 0.00 0.00 73 1008.0
20260509005336 72 64 0.0 0.9 0.00 0.00 0.00 72 1007.6
20260509004503 72 12 0.0 1.7 0.00 0.00 0.00 72 1007.5
20260509004436 73 22 0.9 1.7 0.00 0.00 0.00 72 1007.2
20260509003106 73 32 0.0 0.9 0.00 0.00 0.00 71 1007.2
20260509002635 74 74 0.0 1.7 0.00 0.00 0.00 71 1007.1
20260509001736 74 110 0.0 1.7 0.00 0.00 0.00 70 1007.3
20260509001605 73 97 0.0 1.7 0.00 0.00 0.00 70 1007.7
20260509000836 74 72 0.0 2.6 0.00 0.00 0.00 70 1007.6
20260509000005 74 77 0.9 2.6 0.00 0.00 0.00 68 1008.1
20260508235936 74 100 0.9 2.6 0.00 0.00 0.00 68 1007.8
20260508235036 75 110 1.7 3.5 0.00 0.00 0.00 67 1007.9
20260508234603 74 136 0.9 3.5 0.00 0.00 0.00 67 1008.3
20260508233104 74 159 0.9 2.6 0.00 0.00 0.00 66 1008.8
20260508232336 75 144 0.9 2.6 0.00 0.00 0.00 66 1008.7
20260508231609 75 150 0.0 4.3 0.00 0.00 0.00 64 1009.0
20260508230536 76 109 0.9 2.6 0.00 0.00 0.00 64 1008.6
20260508230128 76 88 0.0 2.6 0.00 0.00 0.00 62 1009.0
20260508225636 76 186 0.9 2.6 0.00 0.00 0.00 63 1008.9
20260508224736 76 136 0.9 2.6 0.00 0.00 0.00 62 1008.8
20260508224503 76 92 0.0 3.5 0.00 0.00 0.00 61 1009.1
20260508223836 77 148 1.7 3.5 0.00 0.00 0.00 61 1008.9
20260508223007 76 151 1.7 4.3 0.00 0.00 0.00 60 1009.1
20260508222936 77 154 1.7 4.3 0.00 0.00 0.00 60 1008.8
20260508222036 77 159 2.6 6.1 0.00 0.00 0.00 61 1008.7
20260508221508 76 133 1.7 7.0 0.00 0.00 0.00 63 1009.0
20260508221135 77 156 3.5 7.0 0.00 0.00 0.00 61 1008.7
20260508220236 77 152 2.6 6.1 0.00 0.00 0.00 61 1008.6
20260508220011 76 173 0.9 6.1 0.00 0.00 0.00 58 1008.8
20260508215335 76 99 2.6 7.8 0.00 0.00 0.00 60 1008.5
20260508214504 77 109 1.7 5.2 0.00 0.00 0.00 56 1008.9
20260508214435 77 149 3.5 7.0 0.00 0.00 0.00 56 1008.6
20260508213536 77 147 3.5 7.0 0.00 0.00 0.00 59 1008.8
20260508213004 77 143 1.7 6.1 0.00 0.00 0.00 59 1009.1
20260508212636 77 143 3.5 6.1 0.00 0.00 0.00 58 1008.9
20260508211735 77 141 3.5 7.0 0.00 0.00 0.00 60 1008.9
20260508211605 76 149 1.7 7.0 0.00 0.00 0.00 61 1009.2
20260508210835 76 119 3.5 7.0 0.00 0.00 0.00 60 1009.0
20260508210105 77 103 3.5 6.1 0.00 0.00 0.00 58 1009.2
20260508205036 78 175 3.5 9.6 0.00 0.00 0.00 57 1009.1
20260508204508 77 173 2.6 8.7 0.00 0.00 0.00 57 1009.5
20260508204135 77 142 3.5 7.0 0.00 0.00 0.00 57 1009.2
20260508203235 77 172 2.6 6.1 0.00 0.00 0.00 58 1009.3
20260508203005 77 127 0.0 6.1 0.00 0.00 0.00 61 1009.6
20260508202335 77 162 3.5 7.0 0.00 0.00 0.00 61 1009.5
20260508201604 76 140 3.5 7.0 0.00 0.00 0.00 63 1009.9
20260508201436 76 146 1.7 6.1 0.00 0.00 0.00 61 1009.7
20260508200535 77 159 4.3 7.8 0.00 0.00 0.00 61 1009.9
20260508200008 76 150 5.2 8.7 0.00 0.00 0.00 60 1010.3
20260508194735 76 161 3.5 9.6 0.00 0.00 0.00 60 1010.2
20260508194505 76 165 1.7 9.6 0.00 0.00 0.00 60 1010.6
20260508193835 76 160 3.5 9.6 0.00 0.00 0.00 62 1010.5
20260508193107 76 195 2.6 8.7 0.00 0.00 0.00 61 1010.9
20260508192935 76 153 4.3 8.7 0.00 0.00 0.00 58 1010.7
20260508191604 75 168 2.6 7.0 0.00 0.00 0.00 61 1011.1
20260508190235 74 37 0.9 4.3 0.00 0.00 0.00 66 1011.0
20260508190004 74 355 0.0 4.3 0.00 0.00 0.00 63 1011.3
20260508185335 74 105 1.7 6.1 0.00 0.00 0.00 65 1011.2
20260508184505 73 103 0.9 5.2 0.00 0.00 0.00 66 1011.5
20260508184435 73 52 1.7 4.3 0.00 0.00 0.00 65 1011.2
20260508183535 73 78 1.7 6.1 0.00 0.00 0.00 66 1011.4
20260508183008 72 42 2.6 6.1 0.00 0.00 0.00 66 1011.8
20260508182635 72 33 2.6 4.3 0.00 0.00 0.00 66 1011.6
20260508181735 74 156 2.6 6.1 0.00 0.00 0.00 63 1011.9
20260508181505 73 185 2.6 5.2 0.00 0.00 0.00 65 1012.2
20260508180835 74 187 2.6 7.8 0.00 0.00 0.00 64 1012.0
20260508180109 73 144 3.5 7.8 0.00 0.00 0.00 66 1012.6
20260508175935 74 165 3.5 7.8 0.00 0.00 0.00 65 1012.5
20260508175035 74 167 4.3 9.6 0.00 0.00 0.00 65 1012.6
20260508174622 72 159 2.6 9.6 0.00 0.00 0.00 66 1013.0
20260508174135 73 158 3.5 8.7 0.00 0.00 0.00 67 1012.7
20260508173004 71 101 2.6 7.8 0.00 0.00 0.00 66 1013.1
20260508172336 71 174 3.5 7.8 0.00 0.00 0.00 67 1013.1
20260508171509 69 152 2.6 7.0 0.00 0.00 0.00 69 1013.4
20260508171435 70 136 2.6 7.0 0.00 0.00 0.00 69 1013.1
20260508170535 69 122 2.6 7.0 0.00 0.00 0.00 69 1013.1
20260508170106 69 140 1.7 7.0 0.00 0.00 0.00 72 1013.5
20260508164735 69 153 1.7 7.0 0.00 0.00 0.00 74 1013.6
20260508164604 68 184 1.7 5.2 0.00 0.00 0.00 75 1013.9
20260508163835 68 161 1.7 5.2 0.00 0.00 0.00 71 1013.5
20260508163106 67 189 1.7 5.2 0.00 0.00 0.00 74 1013.8
20260508162935 67 159 1.7 5.2 0.00 0.00 0.00 74 1013.5
20260508162035 67 167 1.7 5.2 0.00 0.00 0.00 73 1014.0
20260508161605 66 160 0.9 4.3 0.00 0.00 0.00 76 1014.1
20260508161135 66 127 1.7 4.3 0.00 0.00 0.00 75 1013.7
20260508160235 66 149 3.5 7.0 0.00 0.00 0.00 73 1013.8
20260508160105 66 142 3.5 7.0 0.00 0.00 0.00 73 1014.1
20260508155335 66 142 2.6 6.1 0.00 0.00 0.00 73 1014.0
20260508154607 66 164 1.7 5.2 0.00 0.00 0.00 77 1014.5
20260508154435 66 134 2.6 6.1 0.00 0.00 0.00 76 1014.1
20260508153535 66 152 2.6 4.3 0.00 0.00 0.00 76 1014.0
20260508153104 65 191 2.6 5.2 0.00 0.00 0.00 77 1014.3
20260508152635 65 145 1.7 4.3 0.00 0.00 0.00 80 1014.0
20260508151735 64 125 1.7 3.5 0.00 0.00 0.00 80 1013.8
20260508151503 63 106 0.9 3.5 0.00 0.00 0.00 80 1014.0
20260508150835 63 106 1.7 4.3 0.00 0.00 0.00 81 1013.8
20260508150010 62 28 0.0 4.3 0.00 0.00 0.00 82 1014.2
20260508145935 63 98 1.7 4.3 0.00 0.00 0.00 82 1013.9
20260508144505 61 138 0.9 3.5 0.00 0.00 0.00 83 1014.6
20260508144135 62 102 1.7 2.6 0.00 0.00 0.00 84 1014.2
20260508143235 61 99 0.9 2.6 0.00 0.00 0.00 84 1014.3
20260508143104 60 65 0.9 2.6 0.00 0.00 0.00 85 1014.6
20260508142335 60 18 0.9 2.6 0.00 0.00 0.00 85 1014.5
20260508141509 59 22 0.9 2.6 0.00 0.00 0.00 87 1014.6
20260508140535 59 135 0.9 4.3 0.00 0.00 0.00 90 1014.2
20260508135635 58 123 0.9 2.6 0.00 0.00 0.00 92 1014.6
20260508134617 57 133 0.9 2.6 0.00 0.00 0.00 93 1015.0
20260508133835 58 167 1.7 2.6 0.00 0.00 0.00 94 1015.1
20260508133003 57 148 1.7 2.6 0.00 0.00 0.00 94 1015.5
20260508132935 57 132 0.9 2.6 0.00 0.00 0.00 94 1015.2
20260508131605 56 336 0.0 2.6 0.00 0.00 0.00 94 1015.4
20260508131135 56 321 0.9 1.7 0.00 0.00 0.00 94 1014.6
20260508130235 56 226 0.9 1.7 0.00 0.00 0.00 94 1014.7
20260508130005 55 158 0.0 1.7 0.00 0.00 0.00 94 1015.0
20260508125335 56 334 0.0 1.7 0.00 0.00 0.00 94 1014.9
20260508124511 55 13 0.0 1.7 0.00 0.00 0.00 94 1015.3
20260508123535 55 26 0.0 0.9 0.00 0.00 0.00 95 1014.6
20260508123009 54 45 0.0 2.6 0.00 0.00 0.00 94 1014.9
20260508122635 55 9 0.9 2.6 0.00 0.00 0.00 94 1014.5
20260508121505 54 236 0.0 0.9 0.00 0.00 0.00 94 1014.7
20260508120835 54 188 0.9 1.7 0.00 0.00 0.00 94 1014.3
20260508120004 54 173 0.0 1.7 0.00 0.00 0.00 94 1014.6
20260508115935 54 315 0.9 2.6 0.00 0.00 0.00 94 1014.2
20260508114504 54 355 0.0 2.6 0.00 0.00 0.00 95 1014.4
20260508114135 54 7 0.9 3.5 0.00 0.00 0.00 95 1013.7
20260508113235 54 12 0.9 3.5 0.00 0.00 0.00 95 1013.6
20260508113106 54 5 1.7 3.5 0.00 0.00 0.00 95 1014.0
20260508112335 54 17 0.9 3.5 0.00 0.00 0.00 95 1014.1
20260508111604 54 138 0.0 1.7 0.00 0.00 0.00 95 1014.8
20260508111435 54 8 0.0 1.7 0.00 0.00 0.00 95 1014.5
20260508105635 54 6 0.9 1.7 0.00 0.00 0.00 95 1014.7
20260508104735 54 24 0.9 1.7 0.00 0.00 0.00 95 1014.7
20260508104607 54 5 0.0 1.7 0.00 0.00 0.00 95 1015.1
20260508103004 54 33 0.9 1.7 0.00 0.00 0.00 95 1014.5
20260508102935 54 30 0.9 1.7 0.00 0.00 0.00 95 1014.1
20260508102035 54 21 0.9 2.6 0.00 0.00 0.00 95 1014.1
20260508101508 53 355 0.9 4.3 0.00 0.00 0.00 96 1014.5
20260508101135 54 9 0.9 4.3 0.00 0.00 0.00 95 1014.0
20260508100235 54 1 0.0 0.9 0.00 0.00 0.00 95 1014.0
20260508100105 53 360 0.0 0.0 0.00 0.00 0.00 95 1014.4
20260508095335 54 3 0.0 1.7 0.00 0.00 0.00 95 1014.3
20260508094503 53 360 0.0 1.7 0.00 0.00 0.00 95 1014.4
20260508093535 53 47 0.0 2.6 0.00 0.00 0.00 95 1013.9
20260508093104 53 120 0.0 0.0 0.00 0.00 0.00 95 1014.4
20260508092635 53 0 0.0 0.0 0.00 0.00 0.00 95 1014.2
20260508091735 53 0 0.0 0.0 0.00 0.00 0.00 95 1014.1
20260508091605 52 120 0.0 0.0 0.00 0.00 0.00 95 1014.5
20260508090835 53 0 0.0 0.0 0.00 0.00 0.00 95 1013.8
20260508090106 52 120 0.0 0.0 0.00 0.00 0.00 95 1014.3
20260508085935 52 0 0.0 0.0 0.00 0.00 0.00 95 1013.9
20260508085035 52 0 0.0 0.0 0.00 0.00 0.00 94 1014.0
20260508084504 52 120 0.0 0.0 0.00 0.00 0.00 94 1014.5
20260508083235 52 0 0.0 0.0 0.00 0.00 0.00 94 1014.3
20260508083104 52 120 0.0 0.0 0.00 0.00 0.00 94 1014.7
20260508082335 52 0 0.0 0.0 0.00 0.00 0.00 94 1014.2
20260508081508 52 120 0.0 0.0 0.00 0.00 0.00 94 1014.5
20260508081435 52 0 0.0 0.0 0.00 0.00 0.00 94 1014.0
20260508080535 52 0 0.0 0.0 0.00 0.00 0.00 94 1014.0
20260508080010 52 120 0.0 0.0 0.00 0.00 0.00 93 1014.5
20260508075635 53 0 0.0 0.0 0.00 0.00 0.00 93 1014.2
20260508074735 53 0 0.0 0.0 0.00 0.00 0.00 94 1014.3
20260508074503 52 120 0.0 0.0 0.00 0.00 0.00 94 1014.7
20260508073835 53 0 0.0 0.0 0.00 0.00 0.00 94 1014.4
20260508073004 52 120 0.0 0.0 0.00 0.00 0.00 93 1014.7
20260508072935 53 0 0.0 0.0 0.00 0.00 0.00 93 1014.2
20260508072035 53 0 0.0 0.0 0.00 0.00 0.00 93 1014.3
20260508071608 53 120 0.0 0.0 0.00 0.00 0.00 93 1014.6
20260508070235 54 0 0.0 0.0 0.00 0.00 0.00 93 1014.3
20260508070002 53 120 0.0 0.0 0.00 0.00 0.00 93 1014.8
20260508064509 53 120 0.0 0.0 0.00 0.00 0.00 93 1015.1
20260508064435 54 0 0.0 0.0 0.00 0.00 0.00 93 1014.8
20260508063012 54 120 0.0 0.0 0.00 0.00 0.00 93 1015.1
20260508062635 54 0 0.0 0.0 0.00 0.00 0.00 92 1014.8
20260508061735 54 0 0.0 0.0 0.00 0.00 0.00 92 1014.6
20260508061603 54 120 0.0 0.0 0.00 0.00 0.00 92 1015.0
20260508060835 54 0 0.0 0.0 0.00 0.00 0.00 92 1014.8
20260508060008 54 120 0.0 0.0 0.00 0.00 0.00 92 1015.0
20260508055035 55 0 0.0 0.0 0.00 0.00 0.00 92 1014.6
20260508054603 55 120 0.0 0.0 0.00 0.00 0.00 92 1015.0
20260508053235 55 0 0.0 0.0 0.00 0.00 0.00 91 1014.6
20260508053005 55 120 0.0 0.0 0.00 0.00 0.00 91 1014.9
20260508052335 55 0 0.0 0.0 0.00 0.00 0.00 91 1014.6
20260508051604 55 120 0.0 0.0 0.00 0.00 0.00 91 1015.2
20260508051435 56 0 0.0 0.0 0.00 0.00 0.00 91 1014.8
20260508050535 56 0 0.0 0.0 0.00 0.00 0.00 91 1014.6
20260508050009 55 120 0.0 0.0 0.00 0.00 0.00 91 1014.9
20260508044735 56 0 0.0 0.0 0.00 0.00 0.00 90 1014.8
20260508044503 56 120 0.0 0.0 0.00 0.00 0.00 90 1015.1
20260508043835 56 0 0.0 0.0 0.00 0.00 0.00 90 1014.8
20260508043002 56 120 0.0 0.0 0.00 0.00 0.00 90 1015.2
20260508042035 57 0 0.0 0.0 0.00 0.00 0.00 89 1014.9
20260508041602 57 120 0.0 0.0 0.00 0.00 0.00 89 1015.2
20260508040235 57 0 0.0 0.0 0.00 0.00 0.00 89 1015.0
20260508040105 57 120 0.0 0.0 0.00 0.00 0.00 89 1015.4
20260508035335 57 0 0.0 0.0 0.00 0.00 0.00 89 1014.8
20260508034504 57 120 0.0 0.0 0.00 0.00 0.00 88 1015.1
20260508033535 58 0 0.0 0.0 0.00 0.00 0.00 88 1014.9
20260508033105 58 120 0.0 0.0 0.00 0.00 0.00 88 1015.2
20260508032635 58 0 0.0 0.0 0.00 0.00 0.00 87 1014.7
20260508031735 58 0 0.0 0.0 0.00 0.00 0.00 87 1014.6
20260508031604 58 120 0.0 0.0 0.00 0.00 0.00 87 1014.9
20260508030835 59 0 0.0 0.0 0.00 0.00 0.00 86 1014.6
20260508030105 59 120 0.0 0.0 0.00 0.00 0.00 86 1015.0
20260508025935 59 0 0.0 0.0 0.00 0.00 0.00 85 1014.6
20260508025035 59 0 0.0 0.0 0.00 0.00 0.00 85 1014.7